When you browse on this site, cookies collect data to enhance your experience and personalize the content and advertising you see.
Visit our Privacy Policy to learn more. By continuing to use the site, you agree to this use of cookies and data.
  • în România
  • Lista ţărilor
  • Pe 7 zile
  • Temperatura apei
  • Meteo pe hartă
  • Widget-uri
  • user-avatar
    Intrare

    Meteo pe oră la Korçe

    Astăzi, 5 Iunie, Vineri

    Timp Temperatura Precipitaţii Vânt Presiune Umiditate
    00:00 +8°C° 0 mm 2 m/s 663 mmHg 78%
    01:00 +8°C° 0 mm 2 m/s 663 mmHg 78%
    02:00 +8°C° 0 mm 2 m/s 663 mmHg 76%
    03:00 +8°C° 0 mm 2 m/s 663 mmHg 74%
    04:00 +8°C° 0 mm 2 m/s 662 mmHg 72%
    05:00 +9°C° 0 mm 2 m/s 663 mmHg 68%
    06:00 +12°C° 0 mm 2 m/s 664 mmHg 64%
    07:00 +14°C° 0 mm 3 m/s 665 mmHg 60%
    08:00 +16°C° 0 mm 3 m/s 665 mmHg 56%
    09:00 +17°C° 0 mm 3 m/s 665 mmHg 52%
    10:00 +18°C° 0 mm 3 m/s 665 mmHg 49%
    11:00 +19°C° 0 mm 3 m/s 665 mmHg 48%
    12:00 +20°C° 0 mm 3 m/s 665 mmHg 47%
    13:00 +21°C° 0 mm 3 m/s 665 mmHg 46%
    14:00 +20°C° 0 mm 3 m/s 664 mmHg 48%
    15:00 +20°C° 0 mm 3 m/s 664 mmHg 49%
    16:00 +20°C° 0 mm 3 m/s 663 mmHg 51%
    17:00 +18°C° 0 mm 3 m/s 662 mmHg 56%
    18:00 +16°C° 0 mm 2 m/s 662 mmHg 61%
    19:00 +15°C° 0 mm 2 m/s 661 mmHg 67%
    20:00 +14°C° 0.1 mm 2 m/s 661 mmHg 69%
    21:00 +14°C° 0.1 mm 2 m/s 661 mmHg 72%
    22:00 +12°C° 0.1 mm 3 m/s 660 mmHg 74%
    23:00 +12°C° 0.2 mm 3 m/s 660 mmHg 77%

    Mâine, 6 Iunie, Sâmbătă

    Timp Temperatura Precipitaţii Vânt Presiune Umiditate
    00:00 +12°C° 0.2 mm 3 m/s 660 mmHg 81%
    01:00 +12°C° 0.2 mm 3 m/s 659 mmHg 85%
    02:00 +12°C° 0.1 mm 3 m/s 659 mmHg 85%
    03:00 +12°C° 0.1 mm 3 m/s 659 mmHg 86%
    04:00 +11°C° 0.1 mm 3 m/s 658 mmHg 87%
    05:00 +11°C° 1.4 mm 3 m/s 659 mmHg 88%
    06:00 +11°C° 1.4 mm 3 m/s 659 mmHg 88%
    07:00 +11°C° 1.4 mm 3 m/s 659 mmHg 89%
    08:00 +11°C° 3.8 mm 3 m/s 660 mmHg 90%
    09:00 +11°C° 3.8 mm 3 m/s 660 mmHg 91%
    10:00 +12°C° 3.8 mm 2 m/s 660 mmHg 92%
    11:00 +13°C° 0.6 mm 2 m/s 661 mmHg 87%
    12:00 +14°C° 0.6 mm 2 m/s 661 mmHg 82%
    13:00 +15°C° 0.6 mm 1 m/s 662 mmHg 78%
    14:00 +15°C° 0.7 mm 1 m/s 662 mmHg 78%
    15:00 +15°C° 0.7 mm 1 m/s 662 mmHg 77%
    16:00 +15°C° 0.7 mm 1 m/s 662 mmHg 77%
    17:00 +14°C° 0.2 mm 1 m/s 662 mmHg 81%
    18:00 +13°C° 0.2 mm 1 m/s 662 mmHg 86%
    19:00 +12°C° 0.2 mm 1 m/s 661 mmHg 90%
    20:00 +11°C° 0 mm 1 m/s 662 mmHg 90%
    21:00 +11°C° 0 mm 1 m/s 662 mmHg 91%
    22:00 +11°C° 0 mm 1 m/s 662 mmHg 92%
    23:00 +10°C° 0 mm 1 m/s 662 mmHg 92%

    Poimâine, 7 Iunie, Duminică

    Timp Temperatura Precipitaţii Vânt Presiune Umiditate
    00:00 +10°C° 0 mm 1 m/s 662 mmHg 92%
    01:00 +10°C° 0 mm 1 m/s 662 mmHg 92%
    02:00 +9°C° 0 mm 1 m/s 662 mmHg 92%
    03:00 +8°C° 0 mm 0 m/s 662 mmHg 91%
    04:00 +8°C° 0 mm 0 m/s 662 mmHg 91%
    05:00 +11°C° 0 mm 1 m/s 662 mmHg 86%
    06:00 +13°C° 0 mm 1 m/s 663 mmHg 81%
    07:00 +15°C° 0 mm 1 m/s 664 mmHg 76%
    08:00 +16°C° 0 mm 1 m/s 664 mmHg 70%
    09:00 +19°C° 0 mm 1 m/s 665 mmHg 64%
    10:00 +19°C° 0 mm 2 m/s 665 mmHg 58%
    11:00 +19°C° 0 mm 2 m/s 665 mmHg 58%
    12:00 +20°C° 0 mm 3 m/s 665 mmHg 58%
    13:00 +20°C° 0 mm 3 m/s 665 mmHg 58%
    14:00 +20°C° 0 mm 3 m/s 665 mmHg 60%
    15:00 +20°C° 0 mm 3 m/s 665 mmHg 62%
    16:00 +19°C° 0 mm 3 m/s 665 mmHg 64%
    17:00 +17°C° 0 mm 2 m/s 665 mmHg 72%
    18:00 +16°C° 0 mm 2 m/s 664 mmHg 80%
    19:00 +14°C° 0 mm 1 m/s 664 mmHg 88%
    20:00 +13°C° 0 mm 1 m/s 664 mmHg 89%
    21:00 +12°C° 0 mm 1 m/s 664 mmHg 91%
    22:00 +11°C° 0 mm 0 m/s 664 mmHg 92%
    23:00 +10°C° 0 mm 0 m/s 664 mmHg 91%

    8 Iunie, Luni

    Timp Temperatura Precipitaţii Vânt Presiune Umiditate
    00:00 +11°C° 0 mm 1 m/s 664 mmHg 90%
    01:00 +11°C° 0 mm 1 m/s 663 mmHg 89%
    02:00 +11°C° 0 mm 1 m/s 663 mmHg 88%
    03:00 +11°C° 0 mm 1 m/s 663 mmHg 86%
    04:00 +11°C° 0 mm 1 m/s 663 mmHg 85%
    05:00 +13°C° 0 mm 1 m/s 663 mmHg 79%
    06:00 +15°C° 0 mm 1 m/s 664 mmHg 74%
    07:00 +16°C° 0 mm 1 m/s 665 mmHg 68%
    08:00 +18°C° 0 mm 1 m/s 665 mmHg 64%
    09:00 +20°C° 0 mm 1 m/s 666 mmHg 61%
    10:00 +21°C° 0 mm 1 m/s 666 mmHg 58%
    11:00 +21°C° 0 mm 1 m/s 666 mmHg 56%
    12:00 +21°C° 0 mm 2 m/s 666 mmHg 54%
    13:00 +23°C° 0 mm 2 m/s 666 mmHg 52%
    14:00 +21°C° 0.1 mm 2 m/s 666 mmHg 54%
    15:00 +21°C° 0.1 mm 2 m/s 665 mmHg 56%
    16:00 +21°C° 0.1 mm 2 m/s 665 mmHg 59%
    17:00 +19°C° 0.3 mm 2 m/s 665 mmHg 66%
    18:00 +18°C° 0.3 mm 1 m/s 664 mmHg 74%
    19:00 +15°C° 0.3 mm 1 m/s 664 mmHg 81%
    20:00 +15°C° 0 mm 1 m/s 664 mmHg 83%
    21:00 +14°C° 0 mm 1 m/s 664 mmHg 84%
    22:00 +13°C° 0 mm 1 m/s 664 mmHg 85%
    23:00 +13°C° 0 mm 1 m/s 664 mmHg 86%

    9 Iunie, Marţi

    Timp Temperatura Precipitaţii Vânt Presiune Umiditate
    00:00 +13°C° 0 mm 1 m/s 664 mmHg 86%
    01:00 +13°C° 0 mm 1 m/s 664 mmHg 86%
    02:00 +12°C° 0 mm 1 m/s 664 mmHg 86%
    03:00 +12°C° 0 mm 1 m/s 663 mmHg 86%
    04:00 +12°C° 0 mm 1 m/s 663 mmHg 86%
    05:00 +14°C° 0 mm 1 m/s 664 mmHg 81%
    06:00 +16°C° 0 mm 1 m/s 665 mmHg 75%
    07:00 +19°C° 0 mm 1 m/s 665 mmHg 70%
    08:00 +20°C° 0 mm 1 m/s 666 mmHg 64%
    09:00 +22°C° 0 mm 1 m/s 666 mmHg 58%
    10:00 +23°C° 0 mm 1 m/s 667 mmHg 51%
    11:00 +24°C° 0.1 mm 2 m/s 667 mmHg 50%
    12:00 +24°C° 0.1 mm 2 m/s 667 mmHg 49%
    13:00 +24°C° 0.1 mm 2 m/s 667 mmHg 48%
    14:00 +24°C° 0.5 mm 2 m/s 666 mmHg 50%
    15:00 +24°C° 0.5 mm 2 m/s 666 mmHg 51%
    16:00 +24°C° 0.5 mm 2 m/s 666 mmHg 53%
    17:00 +22°C° 0.6 mm 1 m/s 665 mmHg 62%
    18:00 +20°C° 0.6 mm 1 m/s 665 mmHg 71%
    19:00 +18°C° 0.6 mm 1 m/s 664 mmHg 80%
    20:00 +16°C° 0.1 mm 1 m/s 664 mmHg 81%
    21:00 +15°C° 0.1 mm 1 m/s 664 mmHg 83%
    22:00 +14°C° 0.1 mm 1 m/s 665 mmHg 84%
    23:00 +14°C° 0 mm 1 m/s 664 mmHg 84%

    10 Iunie, Miercuri

    Timp Temperatura Precipitaţii Vânt Presiune Umiditate
    00:00 +14°C° 0 mm 1 m/s 664 mmHg 83%
    01:00 +14°C° 0 mm 1 m/s 664 mmHg 83%
    02:00 +14°C° 0 mm 1 m/s 664 mmHg 82%
    03:00 +13°C° 0 mm 1 m/s 664 mmHg 81%
    04:00 +13°C° 0 mm 1 m/s 664 mmHg 80%
    05:00 +15°C° 0 mm 1 m/s 664 mmHg 74%
    06:00 +18°C° 0 mm 1 m/s 665 mmHg 69%
    07:00 +18°C° 0 mm 0 m/s 665 mmHg 63%
    08:00 +21°C° 0 mm 1 m/s 666 mmHg 58%
    09:00 +23°C° 0 mm 1 m/s 666 mmHg 52%
    10:00 +24°C° 0 mm 1 m/s 667 mmHg 47%
    11:00 +24°C° 0.2 mm 2 m/s 666 mmHg 47%
    12:00 +24°C° 0.2 mm 2 m/s 666 mmHg 48%
    13:00 +25°C° 0.2 mm 2 m/s 666 mmHg 48%
    14:00 +24°C° 0.7 mm 2 m/s 666 mmHg 51%
    15:00 +24°C° 0.7 mm 2 m/s 666 mmHg 54%
    16:00 +23°C° 0.7 mm 2 m/s 665 mmHg 58%
    17:00 +20°C° 0.9 mm 2 m/s 665 mmHg 66%
    18:00 +19°C° 0.9 mm 1 m/s 665 mmHg 74%
    19:00 +16°C° 0.9 mm 1 m/s 664 mmHg 83%
    20:00 +15°C° 0.1 mm 1 m/s 664 mmHg 83%
    21:00 +14°C° 0.1 mm 1 m/s 664 mmHg 84%
    22:00 +13°C° 0.1 mm 0 m/s 664 mmHg 84%
    23:00 +12°C° 0 mm 0 m/s 664 mmHg 84%
    Arată mai mult